EHI
0 0 0 0 0 0 0 0 0 0 1 0 0 0 1 1 1 0 2 9 18 21 19 20 23 20 15 12 9 7 6 4 2 0 0 0 0 0 0 0 0 0 0 0 0 1 1 1 0
0 0 0 0 0 0 0 0 0 1 1 1 1 1 1 2 1 0 2 10 20 21 19 21 25 22 14 10 8 6 5 4 2 1 0 0 0 0 0 0 0 0 0 0 1 1 1 1 1
0 0 0 0 0 0 0 0 0 1 2 3 3 2 1 1 1 3 6 14 20 20 19 22 26 23 16 13 11 8 6 5 3 1 0 0 0 0 0 0 0 0 0 0 1 2 2 1 0
0 0 0 0 0 0 0 0 0 1 3 4 5 4 2 2 6 11 14 16 18 17 18 22 28 28 24 20 17 13 10 9 6 3 1 0 0 0 0 0 0 0 0 0 1 2 2 1 0
0 0 0 0 0 0 0 0 1 2 4 6 8 7 6 10 18 21 18 16 16 16 16 22 30 33 31 27 21 17 15 13 9 5 2 1 0 0 0 0 0 0 0 0 1 1 1 1 1
0 0 0 0 0 0 0 0 2 4 6 7 10 9 10 18 25 24 19 16 16 15 15 20 29 34 34 31 23 18 16 14 11 8 5 3 2 1 0 0 0 0 0 0 0 0 1 2 2
0 0 0 0 0 0 0 1 3 6 7 9 10 10 12 19 24 24 21 18 16 15 14 17 23 27 29 28 24 19 15 14 13 11 8 6 5 3 2 1 1 1 0 1 1 1 2 4 5
0 0 0 0 0 0 0 1 4 7 9 10 10 9 12 19 24 27 26 23 18 15 12 14 17 19 19 19 20 19 17 15 14 12 10 8 6 4 4 3 3 3 2 3 4 4 4 6 7
0 0 0 0 0 0 0 2 5 8 10 11 9 9 14 21 26 29 30 27 22 17 12 12 13 13 12 11 12 14 15 14 13 12 9 7 5 4 4 4 4 4 4 5 6 6 5 5 5
0 0 0 0 0 0 0 2 6 9 10 11 11 12 18 23 27 30 31 29 25 20 14 11 11 11 10 8 7 8 8 8 8 8 6 4 3 3 3 3 3 3 3 5 5 4 3 2 1
0 0 0 0 0 1 2 2 4 6 7 9 12 16 19 21 25 30 31 29 27 23 16 12 12 12 11 10 8 6 5 4 3 3 2 1 1 1 1 1 1 1 1 2 2 1 1 0 0
0 0 0 0 1 2 3 3 4 4 4 7 12 15 16 18 23 28 30 29 29 27 22 17 14 14 13 11 9 7 5 4 2 1 1 1 0 0 0 0 0 0 0 1 1 0 0 0 0
0 0 0 1 2 3 4 5 5 4 5 7 10 11 11 14 20 25 28 31 33 33 28 22 17 14 13 12 9 7 4 4 4 2 2 2 1 0 0 0 0 0 0 0 0 0 0 0 0
0 0 0 1 2 4 5 6 5 5 6 8 7 7 7 9 15 21 26 33 38 37 32 25 20 17 16 13 9 6 4 4 5 4 3 4 3 2 1 1 1 1 1 0 0 0 0 0 0
0 0 0 1 2 4 5 5 5 6 8 9 7 6 7 8 13 19 26 34 38 37 33 28 24 21 19 15 10 7 5 5 5 5 5 6 6 5 3 2 2 2 2 1 1 0 0 0 0
0 0 0 0 1 3 4 4 5 7 8 9 8 9 12 15 18 22 28 36 38 36 33 31 29 25 21 17 12 9 7 7 7 6 7 8 7 5 4 3 3 3 3 3 2 1 1 0 0
0 0 0 0 1 2 4 5 6 7 8 9 10 13 19 24 26 28 33 39 40 38 36 33 31 28 24 20 16 12 11 10 10 10 9 9 8 5 3 3 2 3 3 3 3 2 1 0 0
0 0 0 0 1 3 4 6 7 7 9 13 16 19 24 30 32 34 38 41 41 40 38 34 30 26 24 22 20 17 14 13 13 12 11 10 8 5 3 3 3 3 3 3 3 1 1 0 0
0 0 0 1 2 4 5 8 8 8 12 18 22 24 28 33 35 37 39 41 40 40 38 34 28 23 22 21 19 17 15 15 14 13 12 12 9 6 4 4 4 4 4 3 3 1 0 0 0
0 0 0 1 3 5 6 9 9 9 13 20 24 27 31 36 38 40 40 41 41 39 36 32 27 23 22 21 18 15 14 15 14 13 12 13 11 8 5 5 6 7 6 4 3 3 2 1 1
0 0 0 1 2 4 6 8 8 9 13 19 24 29 34 39 42 43 43 42 41 37 32 30 27 24 23 22 18 15 14 15 15 13 13 12 11 9 8 7 8 9 8 6 5 5 5 4 3
0 0 0 0 1 1 3 5 6 8 12 17 23 30 35 40 43 43 43 41 38 33 29 29 27 24 22 21 18 16 15 15 15 15 13 11 9 8 8 8 7 8 9 8 6 6 6 5 5
0 0 0 0 0 0 1 2 3 5 9 14 20 28 34 37 39 39 39 37 34 29 27 27 26 23 21 19 17 16 15 15 15 16 15 11 8 7 7 7 7 7 7 7 7 6 6 5 5
0 0 0 0 0 0 0 1 3 3 5 9 16 26 31 31 30 31 32 31 28 27 27 26 24 21 19 17 15 15 15 15 16 17 16 12 9 8 8 8 8 7 7 7 6 6 6 6 5
0 0 0 0 0 0 1 2 3 3 3 4 11 20 25 24 24 24 24 24 24 25 26 24 21 18 16 14 14 15 16 15 15 16 15 13 12 10 10 10 9 8 8 7 6 6 6 6 6
0 0 0 0 0 0 1 3 3 2 2 3 7 13 18 21 22 20 19 20 23 25 24 21 18 16 15 13 13 14 14 14 13 12 12 13 12 11 11 10 9 8 7 6 6 6 6 6 6
0 0 0 0 0 0 0 1 1 2 3 5 7 10 15 19 20 17 15 17 21 23 22 18 16 15 15 14 13 13 13 13 11 9 9 10 11 10 10 9 8 7 6 6 6 6 6 6 6
0 0 0 0 0 0 0 0 0 2 3 5 7 9 12 16 17 14 13 14 17 19 18 15 15 16 16 16 14 14 14 13 12 10 8 8 9 10 10 10 10 8 7 7 7 6 6 6 6
0 0 0 0 0 0 0 0 0 1 2 4 6 8 11 13 13 13 13 16 17 16 14 13 15 16 17 17 16 16 16 15 14 11 10 9 10 11 11 10 11 11 9 8 7 6 4 4 4
0 0 0 0 0 0 0 0 0 0 1 4 6 8 11 12 12 12 14 18 19 16 13 13 14 15 16 16 16 16 17 17 15 12 10 9 10 12 12 10 10 11 11 10 8 5 4 3 3
Wind_Speed
3 3 2 2 5 5 1 3 0 3 4 6 9 9 8 6 5 5 3 11 13 12 9 11 13 13 12 12 11 11 11 11 10 10 10 10 9 9 8 7 6 6 7 8 8 8 9 9 9
2 2 2 4 5 2 3 2 0 3 6 9 10 10 9 7 7 9 7 11 13 12 8 10 14 13 13 12 11 11 11 10 10 10 10 9 9 8 8 6 5 6 7 7 8 9 9 9 9
2 1 3 4 2 4 3 2 3 3 5 6 6 7 6 7 8 7 9 14 12 10 8 10 15 14 13 12 11 11 11 10 10 9 9 9 9 8 8 7 7 7 8 7 8 9 9 9 9
1 3 4 3 2 5 5 5 3 4 4 6 8 7 5 5 6 9 15 15 13 9 8 10 14 14 13 12 12 11 11 10 9 9 9 8 8 7 8 8 9 9 8 8 8 8 8 8 8
3 4 4 2 3 4 4 5 4 4 3 6 9 7 4 4 12 16 15 14 13 9 7 9 13 13 13 12 12 11 10 9 9 9 8 8 7 6 7 7 8 8 8 8 8 8 8 8 8
4 4 3 2 4 4 3 5 5 6 6 7 9 8 3 7 14 14 13 12 12 11 9 8 13 14 13 12 11 11 10 9 8 8 8 7 7 6 6 6 7 7 8 8 8 8 7 7 7
4 3 2 3 4 4 3 3 6 6 5 5 8 8 4 7 11 14 12 11 10 10 8 7 7 9 12 12 11 10 9 9 8 8 7 7 6 6 6 6 6 6 7 8 7 7 6 6 6
5 4 1 2 2 4 2 1 4 6 4 6 6 8 7 9 11 12 12 10 9 8 7 6 5 5 5 6 10 10 9 9 8 8 7 7 6 5 5 4 5 6 6 6 6 6 6 6 6
4 4 2 4 3 4 2 3 2 3 7 4 4 5 10 14 13 13 11 8 8 8 6 6 5 4 4 5 8 8 8 7 7 5 6 5 2 2 2 3 4 5 5 5 5 5 5 5 6
4 3 7 6 4 3 2 0 1 4 5 5 7 8 13 14 14 13 12 10 9 8 7 6 6 5 4 5 4 3 3 3 3 2 2 2 2 1 2 2 3 4 4 4 4 4 4 3 2
4 6 6 4 5 3 2 2 2 7 3 6 12 13 13 13 12 12 11 11 10 10 8 7 7 6 5 3 3 2 2 2 2 2 2 2 1 1 1 1 1 1 2 1 2 2 2 2 2
3 6 5 4 4 3 3 2 2 4 6 10 15 16 13 13 13 12 11 10 9 9 8 7 7 6 5 4 3 3 2 2 2 2 2 2 1 1 1 1 1 1 1 1 1 1 2 2 2
3 5 4 4 3 4 2 1 3 3 7 11 12 11 11 11 10 9 10 10 10 9 8 7 7 6 5 4 3 3 3 3 3 2 3 3 2 2 2 1 1 1 1 1 1 2 2 1 2
4 3 3 2 2 1 3 1 2 4 8 10 12 10 9 9 9 8 9 9 10 9 8 7 7 6 5 4 3 3 3 3 3 2 2 3 2 2 2 2 1 1 1 2 2 2 2 1 1
2 2 5 3 1 2 4 2 2 7 9 10 10 10 9 8 8 9 9 9 9 9 8 8 7 6 6 5 4 3 3 3 2 2 2 3 3 3 3 2 1 1 2 2 2 2 2 1 1
4 3 3 6 2 3 4 4 6 7 10 9 8 9 8 6 8 8 9 8 9 9 8 7 7 6 5 4 3 3 2 3 2 2 2 2 3 3 3 3 2 2 2 2 2 2 2 1 1
4 1 4 8 4 2 3 4 6 7 9 8 8 8 8 7 7 7 9 10 9 8 7 6 5 5 5 4 3 3 3 3 2 2 2 2 3 3 3 3 2 2 2 2 2 2 2 2 1
4 3 4 5 4 0 2 4 5 6 8 9 8 8 9 9 7 8 9 9 9 9 7 6 5 4 3 3 2 2 2 1 2 2 2 3 2 3 3 2 2 3 2 2 2 2 1 2 2
5 4 6 8 5 0 2 3 3 4 5 6 7 8 8 7 5 7 8 9 9 7 8 7 5 3 3 2 2 2 2 1 1 1 2 3 3 3 3 2 2 2 2 2 3 3 2 1 1
5 6 6 6 4 1 2 1 3 3 5 7 8 8 9 7 6 7 8 8 7 7 7 7 6 4 3 3 2 2 2 2 1 1 1 2 3 3 3 3 3 3 2 2 2 3 2 1 1
7 6 7 5 4 3 3 3 2 3 1 3 5 7 9 11 9 9 8 8 8 7 7 7 5 5 4 3 2 2 2 2 1 1 0 1 2 3 3 3 3 3 3 2 2 3 3 2 0
7 7 6 4 0 3 2 2 5 2 1 0 3 7 9 9 9 9 8 8 7 6 6 6 6 5 3 3 3 4 3 2 2 2 1 1 1 2 3 3 3 3 3 3 2 2 2 3 1
6 5 3 3 2 1 1 2 5 2 1 2 2 8 9 10 9 8 8 8 8 7 6 5 5 4 3 3 4 3 2 2 1 1 1 1 1 1 2 3 3 3 3 3 2 2 2 2 2
3 2 4 4 5 1 3 3 4 2 3 1 2 5 6 7 7 6 6 6 6 6 6 5 5 3 3 3 3 4 3 2 2 2 1 1 1 1 2 2 2 3 2 3 3 3 3 2 2
3 5 4 5 4 4 2 3 4 4 4 5 6 6 6 7 6 7 7 6 6 6 6 5 5 3 3 3 2 3 3 3 3 3 3 2 1 1 2 2 2 2 3 3 2 2 2 2 2
1 8 7 4 4 4 1 2 3 3 2 5 6 7 6 5 6 6 6 7 6 6 5 5 4 3 2 2 2 2 2 2 2 2 2 2 2 2 2 3 3 3 3 3 3 2 2 2 2
1 2 7 7 2 1 1 0 2 3 4 4 6 7 6 6 7 6 5 5 6 6 5 4 4 3 2 3 2 2 2 2 2 2 1 1 1 2 2 2 3 2 2 3 3 2 2 2 2
4 3 5 5 3 1 2 2 3 2 1 1 3 5 5 5 5 5 5 4 4 5 4 4 4 3 2 2 2 1 1 1 2 2 1 1 1 2 2 2 3 3 3 3 3 2 2 2 2
1 2 4 3 4 5 2 5 5 5 5 4 4 5 6 6 6 5 5 4 4 4 4 3 3 3 2 1 1 1 0 1 1 1 2 2 2 2 2 2 2 3 3 3 3 3 3 3 2
3 3 5 4 2 3 4 6 4 4 4 4 4 4 5 6 5 5 5 5 4 3 3 4 3 3 2 2 1 1 1 0 1 1 2 2 2 2 2 2 2 3 3 3 4 4 4 3 3
Wind_Direction
207 194 144 74 51 46 333 264 114 53 67 76 87 91 89 79 111 136 141 140 141 143 144 137 130 125 120 116 112 110 107 103 100 95 90 88 88 88 89 90 102 111 112 113 111 112 112 110 111
205 179 73 58 77 54 294 262 112 106 126 115 93 90 82 69 88 113 123 142 142 141 143 139 135 131 126 122 118 117 113 108 104 98 93 90 89 88 88 83 103 125 123 119 116 112 111 111 112
247 164 86 72 106 171 231 242 164 116 114 103 95 76 85 110 114 126 143 143 138 137 142 144 139 135 132 128 125 123 119 114 109 103 97 93 91 88 83 74 94 118 124 123 119 115 114 113 110
81 53 50 68 243 220 205 226 163 120 81 76 98 75 73 113 125 133 140 142 136 137 141 146 141 139 138 135 131 127 124 120 115 110 102 98 95 92 87 78 86 105 117 120 120 118 117 116 113
68 74 52 3 276 261 223 213 163 135 115 99 98 95 73 76 115 129 140 142 139 139 142 147 143 141 140 139 136 131 128 125 121 115 109 103 99 97 95 93 91 98 110 117 119 120 120 116 113
56 69 75 276 274 285 233 204 151 124 119 115 106 108 100 129 129 141 141 141 142 144 146 148 150 147 145 144 142 138 134 130 127 122 116 110 105 104 105 107 105 108 114 121 121 121 123 121 120
111 96 176 224 281 297 266 174 134 135 144 144 130 111 132 154 146 144 141 136 137 141 145 150 158 154 152 151 148 145 141 136 135 130 123 118 116 116 111 113 113 116 120 120 121 123 125 125 121
142 97 320 257 268 276 295 61 124 131 128 129 118 128 162 175 149 138 133 130 135 141 146 154 157 156 156 157 156 154 152 146 142 138 131 126 120 119 121 114 119 121 124 124 124 125 119 118 113
117 86 239 232 216 260 339 45 34 89 109 101 95 131 158 151 139 132 129 132 141 146 151 154 157 160 159 165 167 161 157 151 147 146 145 137 121 110 125 129 133 130 128 128 127 130 118 115 114
114 157 227 220 204 227 292 131 148 85 93 90 87 104 137 143 139 141 144 152 153 156 161 164 164 166 169 172 157 161 158 153 150 149 145 140 143 144 146 152 155 148 140 135 133 137 122 102 102
170 199 229 232 227 201 221 242 130 121 136 160 149 149 153 149 147 152 156 158 161 162 162 168 169 169 168 160 153 156 149 149 153 158 150 145 141 145 140 111 144 157 158 127 113 99 92 102 106
220 250 233 220 222 202 197 183 116 143 178 165 155 155 159 160 161 162 161 160 157 157 163 165 161 161 162 153 156 154 153 157 161 170 159 148 145 148 140 129 129 111 109 116 102 97 104 106 107
240 259 262 221 203 202 169 168 149 167 155 141 139 147 160 166 164 163 158 154 150 155 161 162 154 154 153 148 158 154 162 165 168 164 171 159 148 145 134 142 139 133 118 132 127 116 110 113 111
243 257 289 265 230 188 127 233 128 185 153 142 145 157 166 165 162 156 149 152 155 160 161 156 152 152 144 145 152 156 160 159 156 165 174 161 151 145 136 141 146 144 149 142 135 138 133 123 115
322 349 325 295 267 230 102 351 219 183 157 152 158 159 162 164 151 151 155 153 156 156 153 155 155 145 141 146 150 147 154 149 152 163 164 157 153 150 143 132 138 157 153 135 121 117 109 110 102
6 25 312 285 254 250 128 243 246 177 157 161 164 159 155 161 152 153 149 144 146 147 148 152 149 140 142 143 143 143 145 140 147 150 147 149 151 152 145 141 145 139 134 128 130 121 106 100 104
3 317 275 289 268 243 149 213 228 188 165 169 166 159 154 154 157 153 145 144 142 136 132 130 131 141 147 142 135 133 134 142 150 147 149 154 150 143 141 148 150 137 128 130 146 128 131 139 150
254 267 270 271 281 173 182 213 215 202 177 174 164 158 156 158 163 153 143 140 136 134 130 123 122 130 135 129 117 106 109 136 147 149 162 157 154 151 143 144 143 136 125 124 132 133 137 155 165
235 260 269 273 276 89 190 204 213 199 172 167 164 157 155 157 154 137 138 137 129 126 128 129 127 133 134 137 142 137 149 161 147 151 150 149 148 151 147 142 135 136 137 145 138 135 134 124 116
247 259 267 286 296 130 149 241 240 193 188 179 170 165 156 146 133 130 128 129 131 138 138 137 143 151 153 161 171 165 155 153 148 131 137 148 147 151 153 147 147 144 138 131 131 130 128 147 132
255 239 241 244 305 11 82 348 335 308 227 151 155 157 148 149 150 149 143 141 138 137 141 141 143 147 155 149 123 97 78 64 58 65 136 194 155 151 152 154 151 147 145 160 166 149 143 159 200
261 250 231 229 163 277 145 233 289 282 323 171 159 154 150 150 151 152 149 143 140 141 137 133 138 141 150 145 131 133 136 147 191 190 192 189 140 138 146 151 156 157 156 158 172 159 155 150 178
234 254 241 230 169 312 353 139 278 348 351 311 180 158 153 154 152 150 149 148 141 136 133 132 131 133 136 140 148 145 143 170 169 142 139 134 119 137 147 158 160 161 163 166 166 153 149 153 168
220 7 13 40 73 328 250 156 278 266 211 198 132 142 141 143 137 136 137 133 128 128 126 129 128 137 142 139 152 152 152 152 132 137 158 172 189 184 172 166 166 168 168 174 176 165 161 168 162
74 81 30 358 3 255 238 128 248 262 187 160 147 144 146 148 145 140 131 125 127 129 132 132 133 139 144 142 150 161 157 157 161 171 179 180 187 200 209 182 175 172 173 175 163 158 164 164 161
182 136 155 199 224 267 337 169 254 289 152 132 132 135 140 142 143 142 141 137 134 134 131 133 141 145 145 147 157 147 144 159 177 175 175 189 202 208 205 193 176 173 169 165 157 159 168 152 175
148 189 175 152 200 192 252 266 325 16 51 86 110 124 136 142 140 138 139 144 143 140 140 142 141 143 150 155 151 147 146 153 176 179 167 185 214 208 190 186 185 183 170 165 162 170 180 163 186
158 158 79 103 147 241 274 213 221 240 201 103 111 125 136 139 135 140 143 144 146 146 141 141 139 144 148 153 162 139 174 188 181 160 166 187 216 221 199 199 192 188 186 177 170 176 196 181 195
15 61 99 115 147 153 218 262 223 206 192 171 171 156 142 143 145 149 152 144 139 136 131 129 136 137 133 139 136 116 163 205 147 167 192 195 203 201 197 201 196 193 196 190 177 192 196 192 199
144 141 132 140 217 159 164 252 267 195 195 171 160 149 142 141 141 143 150 145 138 146 143 139 136 133 147 145 122 135 167 184 175 200 215 207 209 209 198 190 192 199 199 197 194 202 198 196 204